EW2345 Weather Reports


Display with metric or nautical units.
time (UTC)temp
F
wind
direction
speed
MPH
gust
MPH
rain 1hr
in
rain 24hr
in
rain mn
in
humidity
%
barometer
mb
20260507185410 59 245 6.0 10.0 0.00 0.00 0.00 72 1009.8
20260507184909 60 248 7.0 12.0 0.00 0.00 0.00 72 1009.8
20260507184410 60 231 9.0 13.0 0.00 0.00 0.00 73 1009.8
20260507183910 60 238 6.0 10.0 0.00 0.00 0.00 73 1009.6
20260507183409 60 244 7.0 13.0 0.00 0.00 0.00 73 1009.6
20260507182910 60 238 7.0 14.0 0.00 0.00 0.00 73 1009.6
20260507182410 60 240 7.0 14.0 0.00 0.00 0.00 72 1009.6
20260507181909 60 245 9.0 13.0 0.00 0.00 0.00 72 1009.5
20260507181409 60 256 7.0 12.0 0.00 0.00 0.00 72 1009.6
20260507180909 60 230 7.0 10.0 0.00 0.00 0.00 73 1009.5
20260507180410 61 240 9.0 12.0 0.00 0.00 0.00 72 1009.4
20260507175910 61 241 8.0 13.0 0.00 0.00 0.00 72 1009.4
20260507175410 61 241 9.0 14.0 0.00 0.00 0.00 71 1009.3
20260507174910 61 250 10.0 20.0 0.00 0.00 0.00 71 1009.3
20260507174410 61 247 9.0 18.0 0.00 0.00 0.00 71 1009.3
20260507173909 62 238 8.0 15.0 0.00 0.00 0.00 71 1009.2
20260507173410 62 249 9.0 20.0 0.00 0.00 0.00 71 1009.3
20260507172910 62 248 13.0 21.0 0.00 0.00 0.00 71 1009.3
20260507172410 62 246 11.0 18.0 0.00 0.00 0.00 71 1009.3
20260507171910 63 239 12.0 20.0 0.00 0.00 0.00 70 1009.3
20260507171409 63 238 10.0 22.0 0.00 0.00 0.00 70 1009.3
20260507170409 63 248 12.0 18.0 0.00 0.00 0.00 71 1009.2
20260507165910 63 240 10.0 21.0 0.00 0.00 0.00 69 1009.2
20260507165409 64 248 10.0 22.0 0.00 0.00 0.00 69 1009.2
20260507163910 64 253 9.0 16.0 0.00 0.00 0.00 70 1009.0
20260507163409 65 242 9.0 15.0 0.00 0.00 0.00 69 1009.1
20260507162911 65 241 10.0 15.0 0.00 0.00 0.00 68 1009.0
20260507162409 66 242 8.0 16.0 0.00 0.00 0.00 67 1009.0
20260507161409 65 229 9.0 15.0 0.00 0.00 0.00 67 1009.0
20260507160910 65 222 9.0 16.0 0.00 0.00 0.00 69 1009.0
20260507160409 64 241 8.0 15.0 0.00 0.00 0.00 73 1008.9
20260507155911 63 233 8.0 13.0 0.00 0.00 0.00 69 1009.0
20260507155410 63 229 8.0 13.0 0.00 0.00 0.00 70 1009.0
20260507154910 64 240 9.0 13.0 0.00 0.00 0.00 67 1009.0
20260507154409 65 226 7.0 15.0 0.00 0.00 0.00 69 1009.0
20260507153910 64 249 8.0 13.0 0.00 0.00 0.00 69 1009.0
20260507152910 65 228 10.0 14.0 0.00 0.00 0.00 70 1009.0
20260507152410 65 239 10.0 14.0 0.00 0.00 0.00 69 1009.1
20260507150410 64 238 9.0 14.0 0.00 0.00 0.00 73 1009.2
20260507145410 63 246 8.0 15.0 0.00 0.00 0.00 75 1009.3
20260507144410 64 226 9.0 18.0 0.00 0.00 0.00 74 1009.3
20260507143410 65 236 10.0 15.0 0.00 0.00 0.00 74 1009.4
20260507142911 64 238 11.0 22.0 0.00 0.00 0.00 75 1009.4
20260507141909 64 233 12.0 18.0 0.00 0.00 0.00 76 1009.4
20260507141409 63 234 9.0 14.0 0.00 0.00 0.00 76 1009.3
20260507140909 63 239 10.0 21.0 0.00 0.00 0.00 76 1009.4
20260507140410 63 236 10.0 15.0 0.00 0.00 0.00 76 1009.5
20260507135911 64 239 9.0 18.0 0.00 0.00 0.00 75 1009.3
20260507134909 64 247 10.0 22.0 0.00 0.00 0.00 74 1009.3
20260507134409 65 265 9.0 16.0 0.00 0.00 0.00 74 1009.3
20260507133910 64 238 9.0 14.0 0.00 0.00 0.00 78 1009.3
20260507133410 63 244 7.0 12.0 0.00 0.00 0.00 76 1009.3
20260507132911 63 239 9.0 15.0 0.00 0.00 0.00 75 1009.4
20260507132410 63 239 9.0 20.0 0.00 0.00 0.00 75 1009.4
20260507131909 63 238 10.0 20.0 0.00 0.00 0.00 76 1009.3
20260507130910 63 256 8.0 13.0 0.00 0.00 0.00 74 1009.4
20260507130409 63 247 8.0 15.0 0.00 0.00 0.00 73 1009.4
20260507124910 64 241 9.0 20.0 0.00 0.00 0.00 73 1009.5
20260507124409 65 236 9.0 20.0 0.00 0.00 0.00 72 1009.4
20260507123910 66 237 10.0 18.0 0.00 0.00 0.00 70 1009.4
20260507123410 66 233 12.0 20.0 0.00 0.00 0.00 70 1009.5
20260507122911 65 243 10.0 20.0 0.00 0.00 0.00 72 1009.6
20260507122410 66 240 12.0 21.0 0.00 0.00 0.00 71 1009.6
20260507121910 67 235 9.0 16.0 0.00 0.00 0.00 70 1009.7
20260507121410 65 225 9.0 15.0 0.00 0.00 0.00 76 1009.7
20260507120909 64 237 9.0 15.0 0.00 0.00 0.00 74 1009.8
20260507120409 64 247 9.0 16.0 0.00 0.00 0.00 73 1009.7
20260507115910 65 248 8.0 15.0 0.00 0.00 0.00 71 1009.8
20260507114909 65 250 8.0 12.0 0.00 0.00 0.00 74 1009.8
20260507114409 63 246 9.0 16.0 0.00 0.00 0.00 72 1009.8
20260507113910 64 235 6.0 14.0 0.00 0.00 0.00 73 1009.9
20260507113409 65 252 9.0 15.0 0.00 0.00 0.00 70 1009.9
20260507112911 66 241 10.0 16.0 0.00 0.00 0.00 68 1009.8
20260507111910 63 246 7.0 12.0 0.00 0.00 0.00 70 1009.8
20260507111410 63 235 8.0 13.0 0.00 0.00 0.00 67 1009.9
20260507110910 64 235 10.0 18.0 0.00 0.00 0.00 64 1009.8
20260507105911 64 235 7.0 10.0 0.00 0.00 0.00 65 1009.9
20260507104410 65 224 7.0 12.0 0.00 0.00 0.00 67 1009.9
20260507103909 64 256 6.0 9.0 0.00 0.00 0.00 67 1009.9
20260507103410 64 69 1.0 3.0 0.00 0.00 0.00 68 1009.9
20260507102910 63 69 0.0 2.0 0.00 0.00 0.00 68 1009.9
20260507102409 63 69 0.0 1.0 0.00 0.00 0.00 69 1010.0
20260507101910 63 69 0.0 2.0 0.00 0.00 0.00 67 1010.0
20260507101410 62 69 0.0 0.0 0.00 0.00 0.00 70 1010.0
20260507100909 61 69 0.0 0.0 0.00 0.00 0.00 67 1010.0
20260507100410 62 69 0.0 2.0 0.00 0.00 0.00 66 1010.0
20260507095910 61 69 0.0 3.0 0.00 0.00 0.00 67 1010.0
20260507095410 61 69 1.0 3.0 0.00 0.00 0.00 67 1010.1
20260507094910 61 69 1.0 3.0 0.00 0.00 0.00 67 1010.1
20260507094409 62 69 1.0 5.0 0.00 0.00 0.00 66 1010.1
20260507093909 62 69 0.0 5.0 0.00 0.00 0.00 67 1010.1
20260507093410 62 69 0.0 5.0 0.00 0.00 0.00 68 1010.1
20260507092910 62 69 1.0 5.0 0.00 0.00 0.00 68 1010.1
20260507092410 61 69 3.0 6.0 0.00 0.00 0.00 70 1010.2
20260507091910 60 69 1.0 3.0 0.00 0.00 0.00 74 1010.3
20260507091409 60 69 1.0 3.0 0.00 0.00 0.00 72 1010.3
20260507090909 60 69 2.0 3.0 0.00 0.00 0.00 74 1010.3
20260507090410 59 69 2.0 5.0 0.00 0.00 0.00 75 1010.3
20260507085911 58 69 1.0 5.0 0.00 0.00 0.00 74 1010.3
20260507085410 57 69 3.0 5.0 0.00 0.00 0.00 76 1010.4
20260507084910 57 69 1.0 2.0 0.00 0.00 0.00 79 1010.4
20260507084409 57 69 1.0 5.0 0.00 0.00 0.00 78 1010.5
20260507083910 56 69 0.0 2.0 0.00 0.00 0.00 81 1010.5
20260507083410 56 69 0.0 0.0 0.00 0.00 0.00 83 1010.4
20260507082910 55 69 0.0 0.0 0.00 0.00 0.00 83 1010.4
20260507082409 55 69 0.0 2.0 0.00 0.00 0.00 84 1010.4
20260507081410 53 69 1.0 2.0 0.00 0.00 0.00 86 1010.4
20260507080910 53 69 0.0 2.0 0.00 0.00 0.00 87 1010.5
20260507075910 53 69 2.0 3.0 0.00 0.00 0.00 88 1010.6
20260507074910 52 69 1.0 3.0 0.00 0.00 0.00 88 1010.6
20260507074410 52 69 1.0 3.0 0.00 0.00 0.00 89 1010.7
20260507073909 51 69 3.0 5.0 0.00 0.00 0.00 89 1010.7
20260507073409 51 69 1.0 5.0 0.00 0.00 0.00 89 1010.7
20260507072410 50 69 1.0 3.0 0.00 0.00 0.00 92 1010.9
20260507071910 50 69 0.0 3.0 0.00 0.00 0.00 93 1010.9
20260507071409 49 69 1.0 3.0 0.00 0.00 0.00 93 1011.0
20260507070410 49 69 0.0 2.0 0.00 0.00 0.00 95 1011.0
20260507065910 49 69 0.0 1.0 0.00 0.00 0.00 97 1011.0
20260507065409 48 69 0.0 0.0 0.00 0.00 0.00 97 1011.0
20260507064909 48 69 1.0 2.0 0.00 0.00 0.00 97 1011.1
20260507064409 48 69 0.0 1.0 0.00 0.00 0.00 98 1011.2
20260507063910 48 69 0.0 0.0 0.00 0.00 0.00 98 1011.1
20260507063410 47 69 0.0 0.0 0.00 0.00 0.00 98 1011.1
20260507062409 47 69 0.0 1.0 0.00 0.00 0.00 98 1011.1
20260507061910 47 69 1.0 2.0 0.00 0.00 0.00 98 1010.9
20260507061409 46 69 1.0 2.0 0.00 0.00 0.00 99 1011.0
20260507060909 45 69 0.0 1.0 0.00 0.00 0.00 98 1011.0
20260507060409 45 69 0.0 0.0 0.00 0.00 0.00 98 1011.0
20260507055410 44 69 1.0 2.0 0.00 0.00 0.00 97 1011.0
20260507054910 44 69 0.0 2.0 0.00 0.01 0.00 97 1011.0
20260507053910 53 67 0.0 0.0 0.00 0.01 0.00 84 1012.9
20260507053410 53 67 0.0 0.0 0.00 0.01 0.00 84 1012.9
20260507052911 53 67 0.0 0.0 0.00 0.01 0.00 84 1012.9
20260507052410 53 67 0.0 0.0 0.00 0.01 0.00 84 1012.9
20260507051910 53 67 0.0 0.0 0.00 0.01 0.00 84 1012.9
20260507051409 53 67 0.0 0.0 0.00 0.01 0.00 84 1012.9
20260507050409 53 67 0.0 0.0 0.00 0.01 0.00 84 1012.9
20260507045911 53 67 0.0 0.0 0.00 0.01 0.00 84 1012.9
20260507045410 53 67 0.0 0.0 0.00 0.01 0.00 84 1012.9
20260507044410 53 67 0.0 0.0 0.00 0.01 0.00 84 1012.9
20260507043910 53 67 0.0 0.0 0.00 0.01 0.00 84 1012.9
20260507043410 53 67 0.0 0.0 0.00 0.01 0.00 84 1012.9
20260507042912 53 67 0.0 0.0 0.00 0.01 0.00 84 1012.9
20260507042410 53 67 0.0 0.0 0.00 0.01 0.00 84 1012.9
20260507041910 53 67 0.0 0.0 0.00 0.01 0.00 84 1012.9
20260507041410 53 67 0.0 0.0 0.00 0.01 0.00 84 1012.9
20260507040911 53 67 0.0 0.0 0.00 0.01 0.00 84 1012.9
20260507040410 53 67 0.0 0.0 0.00 0.01 0.00 84 1012.9
20260507035911 53 67 0.0 0.0 0.00 0.01 0.00 84 1012.9
20260507034410 53 67 0.0 0.0 0.00 0.01 0.00 84 1012.9
20260507033910 53 67 0.0 0.0 0.00 0.01 0.00 84 1012.9
20260507033410 53 67 0.0 0.0 0.00 0.01 0.00 84 1012.9
20260507032911 53 67 0.0 0.0 0.00 0.01 0.00 84 1012.9
20260507032410 53 67 0.0 0.0 0.00 0.01 0.00 84 1012.9
20260507031910 53 67 0.0 0.0 0.00 0.01 0.00 84 1012.9
20260507030910 53 67 0.0 0.0 0.00 0.01 0.00 84 1012.9
20260507025410 53 67 0.0 0.0 0.00 0.01 0.00 84 1012.9
20260507024910 53 67 0.0 0.0 0.00 0.01 0.00 84 1012.9
20260507024409 53 67 0.0 0.0 0.00 0.01 0.00 84 1012.9
20260507023909 53 67 0.0 0.0 0.00 0.01 0.00 84 1012.9
20260507023410 53 67 0.0 0.0 0.00 0.01 0.00 84 1012.9
20260507022911 53 67 0.0 0.0 0.00 0.01 0.00 84 1012.9
20260507021910 53 67 0.0 0.0 0.00 0.01 0.00 84 1012.9
20260507021410 53 67 0.0 0.0 0.00 0.01 0.00 84 1012.9
20260507020910 53 67 0.0 0.0 0.00 0.01 0.00 84 1012.9
20260507015409 53 67 0.0 0.0 0.00 0.01 0.00 84 1012.9
20260507014910 53 67 0.0 0.0 0.00 0.01 0.00 84 1012.9
20260507014410 53 67 0.0 0.0 0.00 0.01 0.00 84 1012.9
20260507013910 53 67 0.0 0.0 0.00 0.01 0.00 84 1012.9
20260507013410 53 67 0.0 0.0 0.00 0.01 0.00 84 1012.9
20260507012911 53 67 0.0 0.0 0.00 0.01 0.00 84 1012.9
20260507011910 53 67 0.0 0.0 0.00 0.01 0.00 84 1012.9
20260507011410 53 67 0.0 0.0 0.00 0.01 0.00 84 1012.9
20260507010410 53 67 0.0 0.0 0.00 0.01 0.00 84 1012.9
20260507005911 53 67 0.0 0.0 0.00 0.01 0.00 84 1012.9
20260507005409 53 67 0.0 0.0 0.00 0.01 0.00 84 1012.9
20260507004910 53 67 0.0 0.0 0.00 0.01 0.00 84 1012.9
20260507004410 53 67 0.0 0.0 0.00 0.01 0.00 84 1012.9
20260507003910 53 67 0.0 0.0 0.00 0.01 0.00 84 1012.9
20260507003410 53 67 0.0 0.0 0.00 0.01 0.00 84 1012.9
20260507002911 53 67 0.0 0.0 0.00 0.01 0.00 84 1012.9
20260507002410 53 67 0.0 0.0 0.00 0.01 0.00 84 1012.9
20260507001410 53 67 0.0 0.0 0.00 0.01 0.00 84 1012.9
20260507000910 53 67 0.0 0.0 0.00 0.01 0.00 84 1012.9
20260507000412 53 67 0.0 0.0 0.00 0.01 0.00 84 1012.9
20260506234910 53 67 0.0 0.0 0.00 0.01 0.00 84 1012.9
20260506234410 53 67 0.0 0.0 0.00 0.01 0.00 84 1012.9
20260506233910 53 67 0.0 0.0 0.00 0.01 0.00 84 1012.9
20260506233410 53 67 0.0 0.0 0.00 0.01 0.00 84 1012.9
20260506232911 53 67 0.0 0.0 0.00 0.01 0.00 84 1012.9
20260506231909 53 67 0.0 0.0 0.00 0.01 0.00 84 1012.9
20260506231410 53 67 0.0 0.0 0.00 0.01 0.00 84 1012.9
20260506230911 53 67 0.0 0.0 0.00 0.01 0.00 84 1012.9
20260506230410 53 67 0.0 0.0 0.00 0.01 0.00 84 1012.9
20260506225409 53 67 0.0 0.0 0.00 0.01 0.00 84 1012.9
20260506224909 53 67 0.0 0.0 0.00 0.01 0.00 84 1012.9
20260506224409 53 67 0.0 0.0 0.00 0.01 0.00 84 1012.9
20260506223910 53 67 0.0 0.0 0.00 0.01 0.00 84 1012.9
20260506223410 53 67 0.0 0.0 0.00 0.01 0.00 84 1012.9
20260506222410 53 67 0.0 0.0 0.00 0.01 0.00 84 1012.9
20260506221910 53 67 1.0 3.0 0.00 0.01 0.00 84 1012.9
20260506221410 53 66 1.0 5.0 0.00 0.01 0.00 84 1013.0
20260506220910 54 69 5.0 7.0 0.00 0.01 0.00 84 1013.1
20260506220410 54 82 2.0 5.0 0.00 0.01 0.00 84 1013.1
20260506215910 54 80 3.0 7.0 0.00 0.01 0.00 83 1013.1
20260506215410 54 66 1.0 8.0 0.00 0.01 0.01 83 1013.1
20260506214910 54 79 3.0 7.0 0.00 0.01 0.01 83 1013.1
20260506214410 54 71 2.0 6.0 0.00 0.01 0.01 83 1013.1
20260506213910 54 73 3.0 7.0 0.00 0.01 0.01 82 1013.1
20260506212409 55 79 4.0 8.0 0.00 0.01 0.01 82 1013.1
20260506211910 55 72 3.0 7.0 0.00 0.01 0.01 82 1013.1
20260506211410 55 76 2.0 6.0 0.00 0.01 0.01 82 1013.1
20260506210910 55 76 1.0 5.0 0.00 0.01 0.01 82 1013.1
20260506210410 55 76 2.0 5.0 0.00 0.01 0.01 82 1013.1
20260506205911 55 75 2.0 6.0 0.00 0.01 0.01 82 1013.1
20260506205410 55 62 2.0 7.0 0.00 0.01 0.01 82 1013.0
20260506204910 55 26 3.0 8.0 0.00 0.01 0.01 83 1013.0
20260506204410 54 63 3.0 9.0 0.00 0.01 0.01 83 1012.9
20260506203909 54 74 2.0 6.0 0.00 0.01 0.01 84 1012.8
20260506203410 54 75 2.0 7.0 0.00 0.01 0.01 83 1012.8
20260506202911 54 238 0.0 5.0 0.00 0.01 0.01 83 1012.8
20260506202410 54 238 0.0 1.0 0.00 0.01 0.01 83 1012.8
20260506201910 55 238 0.0 1.0 0.00 0.01 0.01 83 1012.7
20260506201410 55 238 0.0 2.0 0.00 0.01 0.01 82 1012.7
20260506200910 55 238 3.0 5.0 0.00 0.01 0.01 82 1012.7
20260506200410 55 238 3.0 5.0 0.00 0.01 0.01 81 1012.6
20260506195911 56 238 2.0 5.0 0.00 0.01 0.01 81 1012.6
20260506195409 56 238 3.0 6.0 0.00 0.01 0.01 81 1012.6
20260506194410 56 238 5.0 7.0 0.00 0.01 0.01 80 1012.6
20260506193910 56 238 5.0 6.0 0.00 0.01 0.01 80 1012.5
20260506193410 57 238 4.0 6.0 0.00 0.01 0.01 79 1012.5
20260506192911 57 238 5.0 6.0 0.00 0.01 0.01 79 1012.5
20260506192410 57 238 5.0 6.0 0.00 0.01 0.01 79 1012.4
20260506191910 57 238 5.0 7.0 0.00 0.01 0.01 78 1012.4
20260506191410 58 238 5.0 6.0 0.00 0.01 0.01 78 1012.4
20260506190910 58 238 4.0 6.0 0.00 0.01 0.01 78 1012.3
20260506190410 58 238 4.0 6.0 0.00 0.01 0.01 77 1012.4
20260506185911 58 238 2.0 6.0 0.00 0.01 0.01 77 1012.4